TimeCDT,TemperatureF,Dew PointF,Humidity,Sea Level PressureIn,VisibilityMPH,Wind Direction,Wind SpeedMPH,Gust SpeedMPH,PrecipitationIn,Events,Conditions,WindDirDegrees,DateUTC
12:53 AM,57.0,55.0,93,29.77,6.0,Calm,Calm,-,N/A,,Clear,0,2012-10-02 05:53:00
3:53 AM,55.9,54.0,93,29.81,10.0,WNW,3.5,-,N/A,,Clear,290,2012-10-02 08:53:00
4:53 AM,55.9,54.0,93,29.82,10.0,WNW,3.5,-,N/A,,Clear,300,2012-10-02 09:53:00
5:53 AM,55.9,53.1,90,29.83,10.0,Calm,Calm,-,N/A,,Clear,0,2012-10-02 10:53:00
6:53 AM,55.0,52.0,89,29.86,10.0,Calm,Calm,-,N/A,,Clear,0,2012-10-02 11:53:00
7:53 AM,55.9,52.0,87,29.87,10.0,WNW,3.5,-,N/A,,Clear,290,2012-10-02 12:53:00
8:53 AM,60.1,53.1,78,29.89,10.0,Variable,3.5,-,N/A,,Clear,0,2012-10-02 13:53:00
9:53 AM,64.9,52.0,63,29.91,10.0,Variable,4.6,-,N/A,,Clear,0,2012-10-02 14:53:00
10:53 AM,68.0,50.0,52,29.91,10.0,Variable,3.5,-,N/A,,Clear,0,2012-10-02 15:53:00
11:53 AM,70.0,51.1,51,29.91,10.0,Calm,Calm,-,N/A,,Clear,0,2012-10-02 16:53:00
12:53 PM,71.1,53.1,53,29.90,10.0,Calm,Calm,-,N/A,,Clear,0,2012-10-02 17:53:00
1:53 PM,73.0,51.1,46,29.88,10.0,West,4.6,-,N/A,,Clear,280,2012-10-02 18:53:00
2:53 PM,73.9,51.1,45,29.87,10.0,West,6.9,-,N/A,,Clear,260,2012-10-02 19:53:00
3:53 PM,75.0,52.0,44,29.87,10.0,West,4.6,-,N/A,,Partly Cloudy,270,2012-10-02 20:53:00
4:53 PM,75.0,51.1,43,29.88,10.0,Calm,Calm,-,N/A,,Partly Cloudy,0,2012-10-02 21:53:00
5:53 PM,72.0,55.0,55,29.89,10.0,Calm,Calm,-,N/A,,Clear,0,2012-10-02 22:53:00
7:53 PM,64.9,59.0,81,29.91,10.0,WSW,3.5,-,N/A,,Clear,240,2012-10-03 00:53:00
8:53 PM,62.1,59.0,90,29.93,10.0,Calm,Calm,-,N/A,,Clear,0,2012-10-03 01:53:00
9:53 PM,59.0,57.0,93,29.94,9.0,Calm,Calm,-,N/A,,Clear,0,2012-10-03 02:53:00
10:53 PM,57.9,55.9,93,29.96,10.0,Calm,Calm,-,N/A,,Clear,0,2012-10-03 03:53:00
11:53 PM,57.0,55.0,93,29.96,10.0,Calm,Calm,-,N/A,,Clear,0,2012-10-03 04:53:00